Location: Beuvrequen
(50.8014°N, 1.6652°E)
Time: 22:01:05
(UTC+00:00)

USA 186 - Pass Details

Date: 16 October 2021
Orbit: 260 x 423 km, 96.9° (Epoch: 10 October)

Event Time Altitude Azimuth Distance (km) Brightness Sun altitude
Exits shadow 19:04:38 20° 7° (N) 1,037 3.7 -20.6°
Drops below altitude 10° 19:05:45 10° 359° (N) 1,478 4.6 -20.8°
Sets 19:07:45 0° 353° (N) 2,322 5.8 -21.1°
